Weather History for Billings, MT

Change the Weather History Date:

Friday, June 21, 2013

  Actual Average Record
Temperature  
Mean Temperature 63 °F 66 °F  
Max Temperature 73 °F 79 °F 97 °F (1988)
Min Temperature 53 °F 54 °F 41 °F (1958)
Degree Days  
Heating Degree Days 2 2  
Month to date heating degree days 67 81  
Since 1 June heating degree days 67 81  
Since 1 July heating degree days 6414 6767  
Cooling Degree Days 0 3  
Month to date cooling degree days 34 43  
Year to date cooling degree days 61 60  
Since 1 June cooling degree days 34 43  
Growing Degree Days 14 (Base 50)    
Moisture  
Dew Point 45 °F    
Average Humidity 53    
Maximum Humidity 71    
Minimum Humidity 35    
Precipitation  
Precipitation 0.09 in 0.07 in 1.20 in (1991)
Month to date precipitation 0.67 1.58  
Year to date precipitation 7.11 7.44  
Snow  
Snow 0.00 in 0.00 in T in (1991)
Month to date snowfall 0.0 0.0  
Since 1 June snowfall 0.0 0.0  
Since 1 July snowfall 40.4 55.0  
Snow Depth 0.00 in    
Sea Level Pressure  
Sea Level Pressure 29.95 in    
Wind  
Wind Speed 12 mph (NE)    
Max Wind Speed 23 mph    
Max Gust Speed 28 mph    
Visibility 10 miles    
Events Rain , Thunderstorm    
T = Trace of Precipitation, MM = Missing Value Source: NWS Daily Summary

Daily Weather History Graph

Daily Weather History Graph

Search for Another Location

Airport:

Trip Planner

Search our weather history database for the weather conditions in past years. The results will help you decide how hot, cold, wet, or windy it might be!

Date:

Astronomy

Jun. 21, 2013 Rise Set
Actual Time 5:24 AM MDT 9:07 PM MDT
Civil Twilight 4:45 AM MDT 9:46 PM MDT
Nautical Twilight 3:54 AM MDT 10:37 PM MDT
Astronomical Twilight 2:42 AM MDT 11:49 PM MDT
Moon 7:18 PM MDT (6/21) 3:47 AM MDT (6/21)
Length of Visible Light 17h 00m
Length of Day
15h 43m
Waxing Gibbous, 95% of the Moon is Illuminated
Jun 21
Waxing Gibbous
Jun 23
Full
Jun 29
Last Quarter
Jul 8
New
Jul 15
First Quarter

Hourly Weather History & Observations

Time (MDT) Temp. Dew Point Humidity Pressure Visibility Wind Dir Wind Speed Gust Speed Precip Events Conditions
12:53 AM 59.0 °F 37.9 °F 46% 29.94 in 10.0 mi NNE 6.9 mph - N/A   Mostly Cloudy
1:53 AM 57.9 °F 41.0 °F 53% 29.93 in 10.0 mi NNE 8.1 mph - N/A   Mostly Cloudy
2:53 AM 57.9 °F 42.1 °F 56% 29.95 in 10.0 mi ENE 6.9 mph - N/A   Mostly Cloudy
3:53 AM 55.9 °F 43.0 °F 62% 29.92 in 10.0 mi NE 13.8 mph - N/A   Partly Cloudy
4:53 AM 53.1 °F 44.1 °F 71% 29.93 in 10.0 mi NNE 9.2 mph - N/A   Partly Cloudy
5:53 AM 55.0 °F 45.0 °F 69% 29.94 in 10.0 mi NNE 11.5 mph - N/A   Partly Cloudy
6:53 AM 55.0 °F 45.0 °F 69% 29.94 in 10.0 mi NE 15.0 mph - N/A   Mostly Cloudy
7:53 AM 57.0 °F 45.0 °F 64% 29.94 in 10.0 mi NE 16.1 mph - N/A   Scattered Clouds
8:53 AM 59.0 °F 44.1 °F 58% 29.96 in 10.0 mi NE 15.0 mph - N/A   Scattered Clouds
9:53 AM 63.0 °F 44.1 °F 50% 29.95 in 10.0 mi NE 18.4 mph - N/A   Scattered Clouds
10:53 AM 64.9 °F 44.1 °F 47% 29.95 in 10.0 mi NE 17.3 mph - N/A   Mostly Cloudy
11:53 AM 66.0 °F 45.0 °F 47% 29.95 in 10.0 mi ESE 10.4 mph 23.0 mph N/A   Mostly Cloudy
12:53 PM 66.0 °F 46.0 °F 48% 29.94 in 10.0 mi NE 15.0 mph - N/A   Mostly Cloudy
1:53 PM 66.9 °F 45.0 °F 45% 29.94 in 10.0 mi ENE 9.2 mph - N/A   Scattered Clouds
2:53 PM 68.0 °F 46.0 °F 45% 29.93 in 10.0 mi NE 13.8 mph - N/A   Mostly Cloudy
3:53 PM 70.0 °F 46.0 °F 42% 29.92 in 10.0 mi NE 8.1 mph - N/A   Scattered Clouds
4:53 PM 72.0 °F 45.0 °F 38% 29.92 in 10.0 mi NE 9.2 mph 21.9 mph N/A   Scattered Clouds
5:53 PM 72.0 °F 43.0 °F 35% 29.91 in 10.0 mi Variable 5.8 mph - N/A   Scattered Clouds
6:53 PM 71.1 °F 44.1 °F 38% 29.91 in 10.0 mi NE 9.2 mph - N/A   Scattered Clouds
7:53 PM 69.1 °F 44.1 °F 40% 29.92 in 10.0 mi East 9.2 mph - N/A   Mostly Cloudy
8:53 PM 68.0 °F 44.1 °F 42% 29.93 in 10.0 mi ENE 6.9 mph - N/A   Mostly Cloudy
9:43 PM 59.0 °F 48.0 °F 67% 30.01 in 10.0 mi NE 17.3 mph - 0.00 in Thunderstorm Thunderstorm
9:53 PM 59.0 °F 48.0 °F 67% 29.97 in 10.0 mi NNE 15.0 mph - 0.00 in Thunderstorm Thunderstorm
10:44 PM 55.9 °F 48.9 °F 77% 30.05 in 10.0 mi North 11.5 mph - N/A   Mostly Cloudy
10:53 PM 55.9 °F 48.9 °F 77% 30.00 in 10.0 mi North 13.8 mph - N/A   Mostly Cloudy
11:36 PM 54.0 °F 48.9 °F 83% 30.05 in 6.0 mi North 9.2 mph - 0.08 in Rain , Thunderstorm Thunderstorms and Rain
11:53 PM 54.0 °F 50.0 °F 86% 30.01 in 10.0 mi NW 9.2 mph - 0.09 in Rain , Thunderstorm Light Thunderstorms and Rain